• In Österreich
  • Länderverzeichnis
  • Für 7 Tage
  • Wassertemperatur
  • Satellitenkarten
  • Wetterkarte
  • News
  • Widgets
  • user-avatar
    Anmelden

    Stündliche Wetter Darwin

    Heute, 25 Februar, Sonntag

    Zeit Temperatur Niederschläge Wind Luftdruck Luftfeuchtigkeit
    00:00 +29°C° 0 mm 2 m/S 755 mmHg 84%
    01:00 +28°C° 0 mm 1 m/S 755 mmHg 85%
    02:00 +28°C° 0 mm 1 m/S 754 mmHg 86%
    03:00 +28°C° 0 mm 1 m/S 754 mmHg 87%
    04:00 +28°C° 0 mm 1 m/S 754 mmHg 87%
    05:00 +27°C° 0 mm 1 m/S 755 mmHg 88%
    06:00 +27°C° 0 mm 1 m/S 755 mmHg 88%
    07:00 +29°C° 0 mm 1 m/S 755 mmHg 83%
    08:00 +30°C° 0 mm 2 m/S 755 mmHg 78%
    09:00 +32°C° 0 mm 2 m/S 755 mmHg 73%
    10:00 +34°C° 0,1 mm 2 m/S 755 mmHg 68%
    11:00 +35°C° 0,1 mm 2 m/S 755 mmHg 62%
    12:00 +37°C° 0,1 mm 2 m/S 755 mmHg 57%
    13:00 +36°C° 0,4 mm 2 m/S 754 mmHg 60%
    14:00 +35°C° 0,4 mm 3 m/S 754 mmHg 64%
    15:00 +35°C° 0,4 mm 3 m/S 753 mmHg 68%
    16:00 +34°C° 0,8 mm 3 m/S 753 mmHg 73%
    17:00 +31°C° 0,8 mm 3 m/S 754 mmHg 78%
    18:00 +30°C° 0,8 mm 2 m/S 754 mmHg 84%
    19:00 +30°C° 0,1 mm 2 m/S 754 mmHg 85%
    20:00 +29°C° 0,1 mm 2 m/S 754 mmHg 85%
    21:00 +29°C° 0,1 mm 2 m/S 755 mmHg 86%
    22:00 +29°C° 0,2 mm 2 m/S 755 mmHg 87%
    23:00 +29°C° 0,2 mm 2 m/S 754 mmHg 87%

    Morgen, 26 Februar, Montag

    Zeit Temperatur Niederschläge Wind Luftdruck Luftfeuchtigkeit
    00:00 +29°C° 0,2 mm 3 m/S 754 mmHg 88%
    01:00 +28°C° 0 mm 3 m/S 754 mmHg 88%
    02:00 +28°C° 0 mm 3 m/S 754 mmHg 88%
    03:00 +28°C° 0 mm 3 m/S 754 mmHg 88%
    04:00 +28°C° 0,1 mm 3 m/S 754 mmHg 88%
    05:00 +28°C° 0,1 mm 2 m/S 754 mmHg 89%
    06:00 +28°C° 0,1 mm 2 m/S 754 mmHg 89%
    07:00 +29°C° 0,1 mm 2 m/S 755 mmHg 84%
    08:00 +31°C° 0,1 mm 1 m/S 755 mmHg 79%
    09:00 +32°C° 0,1 mm 1 m/S 756 mmHg 74%
    10:00 +33°C° 0,2 mm 1 m/S 755 mmHg 68%
    11:00 +35°C° 0,2 mm 1 m/S 755 mmHg 63%
    12:00 +36°C° 0,2 mm 1 m/S 754 mmHg 57%
    13:00 +36°C° 0,1 mm 2 m/S 754 mmHg 59%
    14:00 +36°C° 0,1 mm 2 m/S 753 mmHg 61%
    15:00 +36°C° 0,1 mm 3 m/S 753 mmHg 62%
    16:00 +35°C° 0,3 mm 3 m/S 753 mmHg 67%
    17:00 +34°C° 0,3 mm 2 m/S 753 mmHg 71%
    18:00 +32°C° 0,3 mm 2 m/S 753 mmHg 76%
    19:00 +31°C° 0,1 mm 2 m/S 754 mmHg 77%
    20:00 +30°C° 0,1 mm 2 m/S 755 mmHg 79%
    21:00 +30°C° 0,1 mm 2 m/S 755 mmHg 80%
    22:00 +29°C° 0,2 mm 2 m/S 755 mmHg 81%
    23:00 +29°C° 0,2 mm 2 m/S 755 mmHg 82%

    übermorgen, 27 Februar, Dienstag

    Zeit Temperatur Niederschläge Wind Luftdruck Luftfeuchtigkeit
    00:00 +29°C° 0,2 mm 3 m/S 755 mmHg 83%
    01:00 +29°C° 0,1 mm 3 m/S 755 mmHg 84%
    02:00 +29°C° 0,1 mm 3 m/S 754 mmHg 85%
    03:00 +29°C° 0,1 mm 3 m/S 754 mmHg 85%
    04:00 +29°C° 0,1 mm 3 m/S 754 mmHg 86%
    05:00 +28°C° 0,1 mm 3 m/S 755 mmHg 86%
    06:00 +28°C° 0,1 mm 2 m/S 755 mmHg 87%
    07:00 +29°C° 0,3 mm 3 m/S 755 mmHg 84%
    08:00 +30°C° 0,3 mm 3 m/S 756 mmHg 81%
    09:00 +31°C° 0,3 mm 3 m/S 756 mmHg 78%
    10:00 +33°C° 0,3 mm 3 m/S 756 mmHg 75%
    11:00 +34°C° 0,3 mm 3 m/S 756 mmHg 71%
    12:00 +34°C° 0,3 mm 3 m/S 755 mmHg 68%
    13:00 +35°C° 0,2 mm 3 m/S 755 mmHg 67%
    14:00 +35°C° 0,2 mm 3 m/S 754 mmHg 66%
    15:00 +35°C° 0,2 mm 3 m/S 754 mmHg 65%
    16:00 +34°C° 0,5 mm 3 m/S 754 mmHg 70%
    17:00 +33°C° 0,5 mm 3 m/S 754 mmHg 74%
    18:00 +31°C° 0,5 mm 2 m/S 754 mmHg 79%
    19:00 +30°C° 0 mm 2 m/S 755 mmHg 81%
    20:00 +30°C° 0 mm 2 m/S 755 mmHg 82%
    21:00 +29°C° 0 mm 2 m/S 756 mmHg 84%
    22:00 +29°C° 0 mm 2 m/S 756 mmHg 85%
    23:00 +29°C° 0 mm 2 m/S 756 mmHg 85%

    28 Februar, Mittwoch

    Zeit Temperatur Niederschläge Wind Luftdruck Luftfeuchtigkeit
    00:00 +29°C° 0 mm 2 m/S 756 mmHg 86%
    01:00 +29°C° 0 mm 2 m/S 755 mmHg 86%
    02:00 +28°C° 0 mm 2 m/S 755 mmHg 86%
    03:00 +28°C° 0 mm 2 m/S 754 mmHg 87%
    04:00 +28°C° 0,3 mm 2 m/S 754 mmHg 87%
    05:00 +28°C° 0,3 mm 2 m/S 755 mmHg 87%
    06:00 +28°C° 0,3 mm 2 m/S 755 mmHg 87%
    07:00 +29°C° 1,9 mm 2 m/S 756 mmHg 85%
    08:00 +30°C° 1,9 mm 2 m/S 756 mmHg 83%
    09:00 +31°C° 1,9 mm 2 m/S 757 mmHg 81%
    10:00 +31°C° 0 mm 2 m/S 756 mmHg 76%
    11:00 +32°C° 0 mm 2 m/S 756 mmHg 71%
    12:00 +34°C° 0 mm 3 m/S 756 mmHg 67%
    13:00 +34°C° 0 mm 3 m/S 755 mmHg 65%
    14:00 +35°C° 0 mm 3 m/S 754 mmHg 64%
    15:00 +35°C° 0 mm 3 m/S 754 mmHg 62%
    16:00 +34°C° 0 mm 3 m/S 754 mmHg 67%
    17:00 +33°C° 0 mm 3 m/S 754 mmHg 72%
    18:00 +31°C° 0 mm 3 m/S 754 mmHg 77%
    19:00 +30°C° 0,1 mm 3 m/S 755 mmHg 79%
    20:00 +30°C° 0,1 mm 3 m/S 756 mmHg 81%
    21:00 +29°C° 0,1 mm 3 m/S 756 mmHg 83%
    22:00 +29°C° 0 mm 3 m/S 756 mmHg 84%
    23:00 +29°C° 0 mm 3 m/S 756 mmHg 84%

    1 März, Donnerstag

    Zeit Temperatur Niederschläge Wind Luftdruck Luftfeuchtigkeit
    00:00 +28°C° 0 mm 3 m/S 756 mmHg 85%
    01:00 +28°C° 0,2 mm 3 m/S 755 mmHg 86%
    02:00 +28°C° 0,2 mm 3 m/S 755 mmHg 88%
    03:00 +28°C° 0,2 mm 3 m/S 754 mmHg 90%
    04:00 +27°C° 0,8 mm 3 m/S 755 mmHg 91%
    05:00 +27°C° 0,8 mm 2 m/S 755 mmHg 92%
    06:00 +27°C° 0,8 mm 1 m/S 755 mmHg 92%
    07:00 +28°C° 0,6 mm 1 m/S 755 mmHg 89%
    08:00 +29°C° 0,6 mm 1 m/S 755 mmHg 85%
    09:00 +30°C° 0,6 mm 1 m/S 756 mmHg 81%
    10:00 +31°C° 0 mm 1 m/S 756 mmHg 74%
    11:00 +33°C° 0 mm 1 m/S 755 mmHg 67%
    12:00 +35°C° 0 mm 2 m/S 755 mmHg 60%
    13:00 +35°C° 0,2 mm 2 m/S 755 mmHg 63%
    14:00 +34°C° 0,2 mm 2 m/S 754 mmHg 65%
    15:00 +34°C° 0,2 mm 3 m/S 753 mmHg 68%
    16:00 +33°C° 0,7 mm 3 m/S 754 mmHg 73%
    17:00 +31°C° 0,7 mm 3 m/S 754 mmHg 78%
    18:00 +30°C° 0,7 mm 3 m/S 754 mmHg 84%
    19:00 +29°C° 0 mm 3 m/S 755 mmHg 85%
    20:00 +29°C° 0 mm 2 m/S 755 mmHg 87%
    21:00 +28°C° 0 mm 2 m/S 755 mmHg 88%
    22:00 +28°C° 0 mm 2 m/S 755 mmHg 88%
    23:00 +28°C° 0 mm 2 m/S 755 mmHg 88%

    2 März, Freitag

    Zeit Temperatur Niederschläge Wind Luftdruck Luftfeuchtigkeit
    00:00 +28°C° 0 mm 2 m/S 755 mmHg 89%
    01:00 +28°C° 0 mm 2 m/S 755 mmHg 89%
    02:00 +27°C° 0 mm 1 m/S 754 mmHg 90%
    03:00 +27°C° 0 mm 1 m/S 754 mmHg 91%
    04:00 +27°C° 0,1 mm 1 m/S 754 mmHg 91%
    05:00 +27°C° 0,1 mm 1 m/S 755 mmHg 91%
    06:00 +27°C° 0,1 mm 1 m/S 755 mmHg 91%
    07:00 +28°C° 1,1 mm 1 m/S 755 mmHg 87%
    08:00 +29°C° 1,1 mm 2 m/S 756 mmHg 83%
    09:00 +30°C° 1,1 mm 2 m/S 756 mmHg 78%
    10:00 +32°C° 0,2 mm 2 m/S 755 mmHg 72%
    11:00 +34°C° 0,2 mm 2 m/S 755 mmHg 65%
    12:00 +34°C° 0,2 mm 1 m/S 754 mmHg 58%
    13:00 +35°C° 0,1 mm 2 m/S 754 mmHg 59%
    14:00 +35°C° 0,1 mm 2 m/S 753 mmHg 60%
    15:00 +35°C° 0,1 mm 2 m/S 753 mmHg 61%
    16:00 +34°C° 0,4 mm 2 m/S 753 mmHg 65%
    17:00 +32°C° 0,4 mm 2 m/S 753 mmHg 70%
    18:00 +31°C° 0,4 mm 2 m/S 754 mmHg 74%
    19:00 +30°C° 0,1 mm 2 m/S 754 mmHg 76%
    20:00 +30°C° 0,1 mm 1 m/S 755 mmHg 77%
    21:00 +29°C° 0,1 mm 1 m/S 755 mmHg 78%
    22:00 +29°C° 0 mm 1 m/S 755 mmHg 80%
    23:00 +28°C° 0 mm 2 m/S 754 mmHg 81%
    Mehr zeigen